Flag Weather past 2 weeks in Sterling Heights, Michigan, U.S.A.

Now
40 °F

Overcast.


Feels Like: 30 °F
Forecast: 31 / 37 °F
Wind: 25 mph from Southwest

Location: Selfridge Air National Guard Base

Current Time: Nov 24, 2014 at 8:03:16 PM

Latest Report: Nov 24, 2014 at 6:55 PM


Visibility: 12 mi

Pressure: 29.52 "Hg

Humidity: 69%

Dew point: 31 °F

Location of Sterling HeightsLocation

Historic Weather in Sterling Heights — Graph

°F

Sterling Heights temperature yesterday

Maximum temperature yesterday: 49 °F (at 6:55 PM)
Minimum temperature yesterday: 42 °F (at 3:58 AM)
Average temperature yesterday: 46 °F

Past Weeks' High & Low Weather Summary

 TemperatureHumidityPressure
High63 °F (Nov 11, 1:58 PM)100% (Nov 16, 7:56 PM)30.49 "Hg (Nov 16, 7:56 PM)
Low11 °F (Nov 21, 6:58 AM)26% (Nov 19, 1:55 PM)29.05 "Hg (Nov 24, 4:03 AM)
Average33 °F76%29.96 "Hg
* Reported Nov 9 6:55 PM — Nov 24 6:55 PM, Sterling Heights, Weather by CustomWeather, © 2014

Note: Actual official high and low records may vary slightly from our data, if they occured in-between our weather recording intervals... More about our weather records

Advertising

Sterling Heights weather history for previous 24 hours

 ConditionsComfort  
Time TempWeatherWind HumidityBarometerVisibility
6:55 PM
Nov 24
40 °FOvercast.25 mph69%29.52 "Hg12 mi
5:55 PM40 °FOvercast.28 mph77%29.47 "Hg12 mi
4:55 PM42 °FOvercast.33 mph74%29.42 "Hg12 mi
3:55 PM44 °FPartly sunny.32 mph70%29.35 "Hg12 mi
2:55 PM47 °FMostly cloudy.28 mph77%29.26 "Hg12 mi
1:55 PM54 °FPartly sunny.28 mph75%29.17 "Hg12 mi
12:55 PM58 °FBroken clouds.26 mph85%29.12 "Hg7 mi
11:55 AM54 °FCloudy.17 mph100%29.12 "Hg7 mi
10:55 AM53 °FLight rain. Cloudy.13 mph100%29.13 "Hg7 mi
9:55 AM56 °FBroken clouds.13 mph100%29.13 "Hg10 mi
8:55 AM55 °FLight rain. Cloudy.17 mph100%29.14 "Hg7 mi
7:55 AM55 °FOvercast.14 mph100%29.15 "Hg7 mi
6:58 AM55 °FOvercast.20 mph100%29.12 "Hg10 mi
5:58 AM54 °FOvercast.20 mph100%29.10 "Hg10 mi
4:58 AM54 °FLow clouds.20 mph100%29.06 "Hg10 mi
4:03 AM50 °FLight rain. Mostly cloudy.20 mph100%29.05 "Hg10 mi
3:58 AM49 °FLight rain. Mostly cloudy.17 mph100%29.06 "Hg10 mi
2:58 AM48 °FLight rain. Low clouds.15 mph100%29.09 "Hg10 mi
1:58 AM48 °FLow clouds.21 mph100%29.12 "Hg10 mi
1:03 AM46 °FLight rain. Low clouds.17 mph100%29.17 "Hg7 mi
12:58 AM47 °FLight rain. Fog.18 mph100%29.18 "Hg6 mi
12:03 AM48 °FLight rain. Fog.22 mph100%29.22 "Hg5 mi
11:58 PM
Nov 23
48 °FLight rain. Fog.20 mph100%29.25 "Hg6 mi
11:03 PM48 °FLight rain. Fog.17 mph100%29.31 "Hg5 mi
9:58 PM48 °FRain. Fog.18 mph100%29.41 "Hg4 mi
8:58 PM48 °FLight rain. Overcast.13 mph99%29.50 "Hg9 mi
Weather by CustomWeather, © 2014

See weather overviewHow to use our weather pages